ACA768 CYYT-CYQX

Flight info

Callsign ACA768
Flight time 0h 29m
Altitude 20000
Route LEVAD
Aircraft A319/M-SDE3FGHIRWY/LB1

Departure

Time 2026-05-06 19:52
Airport St. John's International Airport (CYYT)

Arrival

Time 2026-05-06 20:21
Airport Gander International Airport (CYQX)
Time Latitude Longitude Altitude Speed Heading
2026-05-06 19:30 47.61192 -52.74074 449 ft 0 kts 267°
2026-05-06 19:39 47.61193 -52.74044 449 ft 4 kts 268°
2026-05-06 19:39 47.61192 -52.74005 449 ft 4 kts 281°
2026-05-06 19:39 47.61183 -52.73970 449 ft 4 kts 319°
2026-05-06 19:40 47.61168 -52.73959 449 ft 1 kts 355°
2026-05-06 19:40 47.61165 -52.73959 449 ft 0 kts 355°
2026-05-06 19:43 47.61166 -52.73959 449 ft 1 kts 355°
2026-05-06 19:43 47.61178 -52.73960 449 ft 3 kts 355°
2026-05-06 19:43 47.61202 -52.73963 449 ft 4 kts 355°
2026-05-06 19:44 47.61236 -52.73967 449 ft 6 kts 355°
2026-05-06 19:44 47.61266 -52.73943 449 ft 6 kts 71°
2026-05-06 19:44 47.61261 -52.73867 434 ft 9 kts 84°
2026-05-06 19:44 47.61310 -52.73825 428 ft 9 kts 357°
2026-05-06 19:45 47.61405 -52.73834 431 ft 19 kts 356°
2026-05-06 19:45 47.61552 -52.73866 432 ft 21 kts 334°
2026-05-06 19:45 47.61661 -52.73998 425 ft 21 kts 319°
2026-05-06 19:45 47.61768 -52.74139 437 ft 20 kts 318°
2026-05-06 19:46 47.61874 -52.74272 438 ft 20 kts 320°
2026-05-06 19:46 47.61972 -52.74394 432 ft 17 kts 320°
2026-05-06 19:46 47.62061 -52.74506 447 ft 16 kts 320°
2026-05-06 19:46 47.62138 -52.74603 452 ft 13 kts 319°
2026-05-06 19:47 47.62212 -52.74696 452 ft 15 kts 319°
2026-05-06 19:47 47.62294 -52.74801 451 ft 16 kts 319°
2026-05-06 19:47 47.62382 -52.74915 447 ft 13 kts 319°
2026-05-06 19:47 47.62453 -52.74956 440 ft 12 kts 26°
2026-05-06 19:48 47.62476 -52.74844 447 ft 12 kts 85°
2026-05-06 19:48 47.62482 -52.74729 450 ft 11 kts 86°
2026-05-06 19:48 47.62487 -52.74607 450 ft 13 kts 86°
2026-05-06 19:48 47.62494 -52.74461 449 ft 16 kts 86°
2026-05-06 19:49 47.62501 -52.74287 447 ft 18 kts 86°
2026-05-06 19:49 47.62511 -52.74083 443 ft 22 kts 86°
2026-05-06 19:49 47.62526 -52.73904 428 ft 12 kts 65°
2026-05-06 19:49 47.62567 -52.73802 432 ft 10 kts 79°
2026-05-06 19:50 47.62546 -52.73733 432 ft 6 kts 159°
2026-05-06 19:50 47.62524 -52.73742 424 ft 2 kts 219°
2026-05-06 19:50 47.62522 -52.73747 433 ft 0 kts 240°
2026-05-06 19:51 47.62521 -52.73758 433 ft 3 kts 260°
2026-05-06 19:51 47.62520 -52.73804 422 ft 6 kts 268°
2026-05-06 19:51 47.62509 -52.74125 444 ft 69 kts 266°
2026-05-06 19:51 47.62465 -52.75163 614 ft 117 kts 264°
2026-05-06 19:52 47.62439 -52.76362 1321 ft 117 kts 261°
2026-05-06 19:52 47.62394 -52.77588 2018 ft 122 kts 259°
2026-05-06 19:52 47.62317 -52.78841 2764 ft 122 kts 258°
2026-05-06 19:52 47.62237 -52.80122 3390 ft 131 kts 261°
2026-05-06 19:53 47.62180 -52.81581 3830 ft 153 kts 264°
2026-05-06 19:53 47.62594 -52.83206 4218 ft 196 kts 303°
2026-05-06 19:53 47.63698 -52.84648 4789 ft 226 kts 313°
2026-05-06 19:53 47.65020 -52.86147 5434 ft 251 kts 315°
2026-05-06 19:54 47.66464 -52.87707 6415 ft 260 kts 316°
2026-05-06 19:54 47.67948 -52.89296 7433 ft 266 kts 317°
2026-05-06 19:54 47.69454 -52.90919 8475 ft 269 kts 317°
2026-05-06 19:54 47.70971 -52.92574 9526 ft 272 kts 317°
2026-05-06 19:55 47.72501 -52.94266 10491 ft 278 kts 318°
2026-05-06 19:55 47.74112 -52.96067 10945 ft 302 kts 318°
2026-05-06 19:55 47.75841 -52.98015 11498 ft 319 kts 318°
2026-05-06 19:55 47.77630 -53.00022 12341 ft 325 kts 317°
2026-05-06 19:56 47.79448 -53.02056 13236 ft 330 kts 317°
2026-05-06 19:56 47.81295 -53.04126 14073 ft 335 kts 317°
2026-05-06 19:56 47.83168 -53.06231 14816 ft 340 kts 317°
2026-05-06 19:56 47.85071 -53.08373 15556 ft 345 kts 317°
2026-05-06 19:57 47.86999 -53.10553 16271 ft 350 kts 317°
2026-05-06 19:57 47.88957 -53.12767 17004 ft 356 kts 317°
2026-05-06 19:57 47.90918 -53.14985 17720 ft 361 kts 317°
2026-05-06 19:57 47.92929 -53.17260 18428 ft 366 kts 317°
2026-05-06 19:58 47.94970 -53.19573 19053 ft 371 kts 318°
2026-05-06 19:58 47.97035 -53.21917 19707 ft 375 kts 317°
2026-05-06 19:58 47.99126 -53.24290 20079 ft 379 kts 317°
2026-05-06 19:58 48.01222 -53.26673 20179 ft 379 kts 317°
2026-05-06 19:59 48.03321 -53.29056 20200 ft 378 kts 318°
2026-05-06 19:59 48.05411 -53.31428 20200 ft 377 kts 317°
2026-05-06 19:59 48.07501 -53.33802 20200 ft 377 kts 317°
2026-05-06 19:59 48.09584 -53.36174 20200 ft 377 kts 318°
2026-05-06 20:00 48.11670 -53.38555 20195 ft 377 kts 317°
2026-05-06 20:00 48.13752 -53.40937 20195 ft 377 kts 317°
2026-05-06 20:00 48.15839 -53.43329 20210 ft 377 kts 317°
2026-05-06 20:00 48.17920 -53.45718 20191 ft 377 kts 317°
2026-05-06 20:01 48.19998 -53.48106 20190 ft 376 kts 317°
2026-05-06 20:01 48.22077 -53.50493 20191 ft 377 kts 317°
2026-05-06 20:01 48.24131 -53.52855 20192 ft 377 kts 317°
2026-05-06 20:01 48.26210 -53.55249 20182 ft 377 kts 317°
2026-05-06 20:02 48.28294 -53.57648 20183 ft 377 kts 318°
2026-05-06 20:02 48.30372 -53.60038 20176 ft 377 kts 318°
2026-05-06 20:02 48.32451 -53.62429 20167 ft 377 kts 318°
2026-05-06 20:02 48.34529 -53.64827 20168 ft 377 kts 317°
2026-05-06 20:03 48.36606 -53.67230 20180 ft 376 kts 317°
2026-05-06 20:03 48.38680 -53.69632 20184 ft 376 kts 317°
2026-05-06 20:03 48.40748 -53.72033 20178 ft 375 kts 317°
2026-05-06 20:03 48.42811 -53.74430 20178 ft 374 kts 317°
2026-05-06 20:04 48.44869 -53.76822 20178 ft 374 kts 317°
2026-05-06 20:04 48.46926 -53.79218 20169 ft 373 kts 317°
2026-05-06 20:04 48.48976 -53.81608 20161 ft 373 kts 317°
2026-05-06 20:04 48.51033 -53.84002 19673 ft 373 kts 317°
2026-05-06 20:05 48.53087 -53.86396 19120 ft 372 kts 317°
2026-05-06 20:05 48.55127 -53.88774 18628 ft 369 kts 317°
2026-05-06 20:05 48.57160 -53.91144 18014 ft 368 kts 317°
2026-05-06 20:05 48.59174 -53.93495 17497 ft 364 kts 317°
2026-05-06 20:06 48.60493 -53.95036 17176 ft 360 kts 317°
2026-05-06 20:06 48.62470 -53.97352 16695 ft 356 kts 317°
2026-05-06 20:06 48.64416 -53.99634 16222 ft 352 kts 317°
2026-05-06 20:06 48.66957 -54.02624 15596 ft 347 kts 316°
2026-05-06 20:07 48.68240 -54.04136 15288 ft 345 kts 316°
2026-05-06 20:07 48.70122 -54.06352 14826 ft 342 kts 316°
2026-05-06 20:07 48.71992 -54.08557 14372 ft 339 kts 316°
2026-05-06 20:07 48.73846 -54.10745 13907 ft 337 kts 316°
2026-05-06 20:08 48.75690 -54.12924 13414 ft 335 kts 316°
2026-05-06 20:08 48.77511 -54.15074 12969 ft 330 kts 316°
2026-05-06 20:08 48.79314 -54.17201 12494 ft 326 kts 316°
2026-05-06 20:08 48.81094 -54.19309 12029 ft 322 kts 316°
2026-05-06 20:09 48.82832 -54.21366 11576 ft 320 kts 316°
2026-05-06 20:09 48.84578 -54.23439 11110 ft 316 kts 315°
2026-05-06 20:09 48.86304 -54.25492 10652 ft 314 kts 315°
2026-05-06 20:09 48.88027 -54.27499 10302 ft 310 kts 319°
2026-05-06 20:10 48.89920 -54.28984 10176 ft 305 kts 333°
2026-05-06 20:10 48.91929 -54.29889 10036 ft 297 kts 336°
2026-05-06 20:10 48.93893 -54.30733 9765 ft 291 kts 336°
2026-05-06 20:10 48.95860 -54.31589 9233 ft 293 kts 336°
2026-05-06 20:11 48.97795 -54.32430 8773 ft 288 kts 335°
2026-05-06 20:11 48.99719 -54.33266 8220 ft 287 kts 335°
2026-05-06 20:11 49.01626 -54.34095 7713 ft 284 kts 335°
2026-05-06 20:11 49.03520 -54.34922 7191 ft 282 kts 335°
2026-05-06 20:12 49.05406 -54.35746 6598 ft 282 kts 335°
2026-05-06 20:12 49.07243 -54.36538 6349 ft 267 kts 334°
2026-05-06 20:12 49.08968 -54.37284 6216 ft 246 kts 330°
2026-05-06 20:12 49.10346 -54.38467 6115 ft 212 kts 309°
2026-05-06 20:13 49.11251 -54.40064 5939 ft 190 kts 292°
2026-05-06 20:13 49.11747 -54.41862 5613 ft 179 kts 277°
2026-05-06 20:13 49.11973 -54.43694 5343 ft 173 kts 274°
2026-05-06 20:13 49.12193 -54.45469 5108 ft 165 kts 274°
2026-05-06 20:14 49.12402 -54.47136 4833 ft 153 kts 273°
2026-05-06 20:14 49.12592 -54.48657 4590 ft 139 kts 270°
2026-05-06 20:14 49.12454 -54.49997 4382 ft 124 kts 244°
2026-05-06 20:14 49.11878 -54.50935 4220 ft 127 kts 221°
2026-05-06 20:15 49.10990 -54.51324 4021 ft 137 kts 204°
2026-05-06 20:15 49.10059 -54.51584 3825 ft 135 kts 205°
2026-05-06 20:15 49.09136 -54.51847 3612 ft 134 kts 205°
2026-05-06 20:15 49.08224 -54.52109 3416 ft 133 kts 204°
2026-05-06 20:16 49.07314 -54.52370 3216 ft 133 kts 204°
2026-05-06 20:16 49.06404 -54.52633 3006 ft 133 kts 202°
2026-05-06 20:16 49.05495 -54.52895 2803 ft 133 kts 201°
2026-05-06 20:16 49.04590 -54.53157 2589 ft 130 kts 201°
2026-05-06 20:17 49.03766 -54.53384 2401 ft 112 kts 201°
2026-05-06 20:17 49.03027 -54.53591 2238 ft 105 kts 202°
2026-05-06 20:17 49.02317 -54.53797 2106 ft 103 kts 202°
2026-05-06 20:17 49.01627 -54.53997 1971 ft 100 kts 200°
2026-05-06 20:18 49.00952 -54.54193 1820 ft 98 kts 199°
2026-05-06 20:18 49.00283 -54.54391 1670 ft 99 kts 201°
2026-05-06 20:18 48.99601 -54.54596 1523 ft 102 kts 201°
2026-05-06 20:18 48.98903 -54.54803 1376 ft 102 kts 201°
2026-05-06 20:19 48.98213 -54.55005 1221 ft 102 kts 200°
2026-05-06 20:19 48.97501 -54.55214 1067 ft 108 kts 198°
2026-05-06 20:19 48.96752 -54.55428 935 ft 108 kts 199°
2026-05-06 20:19 48.96026 -54.55613 785 ft 103 kts 200°
2026-05-06 20:20 48.95328 -54.55828 637 ft 103 kts 201°
2026-05-06 20:20 48.94617 -54.56047 472 ft 103 kts 199°
2026-05-06 20:20 48.94042 -54.56241 460 ft 65 kts 191°
2026-05-06 20:20 48.93637 -54.56356 449 ft 54 kts 191°
2026-05-06 20:21 48.93384 -54.56432 450 ft 14 kts 188°
2026-05-06 20:21 48.93295 -54.56455 453 ft 12 kts 197°
2026-05-06 20:21 48.93256 -54.56568 449 ft 15 kts 277°
2026-05-06 20:21 48.93288 -54.56723 449 ft 16 kts 310°
2026-05-06 20:22 48.93395 -54.56734 450 ft 16 kts 10°
2026-05-06 20:22 48.93505 -54.56703 452 ft 16 kts 10°
2026-05-06 20:22 48.93614 -54.56673 453 ft 16 kts 10°
2026-05-06 20:22 48.93723 -54.56641 455 ft 16 kts 11°
2026-05-06 20:23 48.93831 -54.56609 456 ft 16 kts 11°
2026-05-06 20:23 48.93939 -54.56577 458 ft 16 kts 11°
2026-05-06 20:23 48.94044 -54.56592 458 ft 15 kts 335°
2026-05-06 20:23 48.94142 -54.56667 460 ft 16 kts 333°
2026-05-06 20:24 48.94239 -54.56744 461 ft 16 kts 332°
2026-05-06 20:24 48.94338 -54.56823 464 ft 16 kts 333°
2026-05-06 20:24 48.94443 -54.56901 463 ft 17 kts 334°
2026-05-06 20:24 48.94499 -54.56943 463 ft 9 kts 333°
2026-05-06 20:25 48.94556 -54.56986 466 ft 9 kts 334°
2026-05-06 20:25 48.94624 -54.57001 466 ft 10 kts 358°
2026-05-06 20:25 48.94694 -54.57028 464 ft 11 kts 323°
2026-05-06 20:25 48.94725 -54.57113 466 ft 6 kts 290°
2026-05-06 20:26 48.94740 -54.57175 468 ft 7 kts 290°
2026-05-06 20:26 48.94740 -54.57241 468 ft 6 kts 234°
2026-05-06 20:26 48.94706 -54.57232 468 ft 6 kts 144°
2026-05-06 20:26 48.94678 -54.57209 468 ft 3 kts 152°
2026-05-06 20:27 48.94671 -54.57203 468 ft 0 kts 152°